Location: Rio Negrinho
(26.2394°S, 49.4999°W)
Time: 19:51:04
(UTC+00:00)

Envisat - Pass Details

Date: 28 July 2021
Orbit: 764 x 766 km, 98.2° (Epoch: 17 September)

Event Time Altitude Azimuth Distance (km) Brightness Sun altitude
Rises 21:28:29 0° 189° (S) 3,256 6.2 -9.0°
Reaches altitude 10° 21:31:23 10° 205° (SSW) 2,322 5.6 -9.6°
Maximum altitude 21:34:58 20° 250° (WSW) 1,745 5.6 -10.4°
Drops below altitude 10° 21:38:32 10° 295° (WNW) 2,304 7.0 -11.2°
Sets 21:41:24 0° 312° (NW) 3,222 7.5 -11.8°
